Wednesday, January 17, 2018, 9:38 AM EST
Back to Local

KIAG, Niagara Falls International Airport

Location: Niagara Falls, NY, United States Lat: 43.117
Local Time: 9:38 AM EST (14:38 GMT) Lon: -78.933
Time Zone: US/Eastern Elev: 583 ft

Show me the last for .
Show Decoded

2018-01-17 08:53 METAR KIAG 171353Z 25013KT 6SM HZ OVC011 M08/M12 A3038 RMK AO2 SLP309 T10781122
                 =
2018-01-17 07:53 METAR KIAG 171253Z 24011KT 8SM OVC012 M08/M12 A3038 RMK AO2 SNE01B25E32 SLP308
                 P0000 T10831122 =
2018-01-17 06:53 METAR KIAG 171153Z 24016KT 4SM -SN BKN014 OVC032 M08/M12 A3038 RMK AO2 SNB25
                 SLP309 P0000 60000 T10831122 11078 21089 53001 =
2018-01-17 06:33 METAR KIAG 171133Z AUTO 24011KT 5SM -SN BKN014 OVC032 M08/M12 A3038 RMK AO2
                 SNB25 P0000 T10831122 =
2018-01-17 06:24 METAR KIAG 171124Z AUTO 24015KT 6SM HZ BKN015 BKN034 OVC049 M08/M13 A3038 RMK
                 AO2 T10831128 =
2018-01-17 05:53 METAR KIAG 171053Z AUTO 24014KT 7SM OVC046 M08/M13 A3038 RMK AO2 SNB23E44 SLP308
                 P0000 T10831128 =
2018-01-17 05:02 METAR KIAG 171002Z AUTO 23013KT 7SM FEW017 SCT025 OVC041 M09/M13 A3037 RMK AO2
                 T10891133 =
2018-01-17 04:53 METAR KIAG 170953Z AUTO 24016KT 6SM HZ SCT017 BKN024 OVC043 M09/M13 A3038 RMK
                 AO2 SNE0854B14E48 SLP307 P0000 T10891133 =
2018-01-17 04:48 METAR KIAG 170948Z AUTO 23015KT 6SM HZ SCT017 BKN024 OVC045 M09/M13 A3038 RMK
                 AO2 SNE0854B14E48 P0000 =
2018-01-17 04:14 METAR KIAG 170914Z AUTO 24015KT 6SM -SN SCT014 OVC043 M09/M13 A3038 RMK AO2
                 SNE0854B14 P0000 T10891133 =
2018-01-17 04:04 METAR KIAG 170904Z AUTO 24015G21KT 7SM BKN014 OVC043 M09/M13 A3038 RMK AO2
                 SNE0854 P0000 T10891133 =
2018-01-17 03:53 METAR KIAG 170853Z AUTO 24014KT 6SM -SN SCT014 OVC043 M09/M13 A3038 RMK AO2
                 SNE06B44 SLP309 P0000 60000 T10891133 50003 =
2018-01-17 02:53 METAR KIAG 170753Z AUTO 24017G23KT 7SM -SN OVC038 M08/M13 A3039 RMK AO2 SLP310
                 P0000 T10831128 =
2018-01-17 02:22 METAR KIAG 170722Z AUTO 23013KT 5SM -SN SCT017 OVC036 M08/M13 A3038 RMK AO2
                 P0000 T10831128 =
2018-01-17 01:56 METAR KIAG 170656Z AUTO 23009KT 3SM -SN BKN017 OVC032 M08/M13 A3037 RMK AO2
                 P0000 T10831128 =
2018-01-17 01:53 METAR KIAG 170653Z AUTO 24010KT 2 1/2SM -SN FEW014 SCT019 OVC032 M08/M13 A3037
                 RMK AO2 SNB25 SLP306 P0000 T10831128 =
2018-01-17 00:53 METAR KIAG 170553Z AUTO 22010KT 6SM HZ OVC033 M08/M13 A3037 RMK AO2 SNB02E11
                 SLP305 P0000 60000 T10831133 11061 21089 58006 =
2018-01-16 23:53 METAR KIAG 170453Z AUTO 24010KT 8SM OVC031 M08/M14 A3039 RMK AO2 SLP311
                 T10831139 410221089 =
2018-01-16 23:11 METAR KIAG 170411Z AUTO 24011KT 10SM SCT028 OVC035 M08/M14 A3039 RMK AO2
                 T10831139 =
2018-01-16 22:53 METAR KIAG 170353Z 24008KT 10SM BKN026 OVC039 M08/M14 A3040 RMK AO2
                 UPB0255E0258SNB0259E10 SLP313 P0000 T10831139 =
2018-01-16 21:53 METAR KIAG 170253Z 24013KT 9SM BKN024 OVC034 M08/M13 A3039 RMK AO2 SNB25E36
                 SLP313 P0000 60000 T10831133 51008 =
2018-01-16 20:53 METAR KIAG 170153Z 24015KT 7SM OVC032 M08/M12 A3039 RMK AO2 SNE38 SLP312 P0000
                 T10781122 =
2018-01-16 19:53 METAR KIAG 170053Z 23013KT 4SM -SN FEW036 OVC043 M07/M11 A3038 RMK AO2 SLP308
                 P0000 T10671106 =
2018-01-16 19:20 METAR KIAG 170020Z 23013KT 4SM -SN SCT012 BKN033 OVC050 M06/M10 A3038 RMK AO2
                 P0000 T10611100 =
2018-01-16 19:12 METAR KIAG 170012Z 24012KT 3SM -SN BKN012 BKN035 OVC050 M06/M10 A3038 RMK AO2
                 P0000 T10611100 =
2018-01-16 18:53 METAR KIAG 162353Z 22013KT 3SM -SN FEW011 BKN039 OVC060 M06/M10 A3037 RMK AO2
                 SLP305 P0000 60000 T10611100 11022 21061 53011 =
2018-01-16 18:26 METAR KIAG 162326Z 22011KT 3SM -SN SCT024 BKN038 OVC060 M06/M09 A3036 RMK AO2
                 P0000 T10561094 =
2018-01-16 18:08 METAR KIAG 162308Z 23012KT 3SM -SN OVC024 M05/M09 A3036 RMK AO2 P0000 T10501089
                 =
2018-01-16 17:53 METAR KIAG 162253Z 22009KT 2 1/2SM -SN OVC024 M05/M09 A3036 RMK AO2 SLP299 P0000
                 T10501089 =
2018-01-16 17:21 METAR KIAG 162221Z 21009KT 4SM -SN BKN024 OVC030 M04/M08 A3035 RMK AO2 P0000
                 T10441083 =
2018-01-16 17:00 METAR KIAG 162200Z 23006KT 2 1/2SM -SN OVC024 M04/M08 A3035 RMK AO2 P0000
                 T10391083 =
2018-01-16 16:53 METAR KIAG 162153Z 23008KT 3SM -SN BKN024 OVC055 M04/M08 A3035 RMK AO2 SNE13B48
                 SLP295 P0000 T10391083 =
2018-01-16 16:03 METAR KIAG 162103Z 25005KT 4SM -SN BKN027 OVC041 M04/M08 A3034 RMK AO2 P0000
                 T10391078 =
2018-01-16 15:53 METAR KIAG 162053Z 25004KT 4SM -SN SCT027 BKN037 OVC046 M03/M07 A3034 RMK AO2
                 SNB1955E08B45 SLP292 P0000 60000 T10331072 55000 =
2018-01-16 15:28 METAR KIAG 162028Z 27006KT 6SM HZ SCT017 OVC037 M03/M08 A3034 RMK AO2 SNB1955E08
                 P0000 T10331083 =
2018-01-16 14:53 METAR KIAG 161953Z 24007KT 5SM HZ BKN018 BKN024 OVC055 M03/M08 A3033 RMK AO2
                 SLP290 T10331078 =
2018-01-16 14:25 METAR KIAG 161925Z 22009KT 10SM SCT026 OVC050 M03/M08 A3034 RMK AO2 T10281083 =
2018-01-16 13:53 METAR KIAG 161853Z 21012KT 9SM BKN024 OVC050 M03/M09 A3034 RMK AO2 SLP292
                 T10281089 =
2018-01-16 13:43 METAR KIAG 161843Z 21010KT 10SM SCT022 BKN027 OVC050 M03/M08 A3034 RMK AO2
                 T10281083 =
2018-01-16 12:53 METAR KIAG 161753Z 24005KT 10SM FEW027 FEW050 M02/M08 A3034 RMK AO2 SLP291
                 T10221083 11022 21056 58014 =
2018-01-16 12:00 METAR KIAG 161700Z 24011KT 10SM FEW050 M03/M09 A3036 RMK AO2 T10281089 =
2018-01-16 11:53 METAR KIAG 161653Z 24010KT 10SM BKN011 M03/M09 A3037 RMK AO2 SLP302 T10331089 =
2018-01-16 10:53 METAR KIAG 161553Z 23010KT 9SM BKN011 BKN055 M04/M07 A3038 RMK AO2 SLP307
                 T10391072 =
2018-01-16 09:53 METAR KIAG 161453Z 23010KT 7SM BKN013 OVC055 M04/M07 A3038 RMK AO2 SLP306
                 T10391072 53019 =

Support USWX by starting your Amazon purchase here.